Location: Newark
(42.8481°N, 0.4872°E)
Time: 08:47:55
(UTC+00:00)

A-11 Canister half - Pass Details

Date: 05 November 2020
Orbit: 1516 x 1684 km, 47.2° (Epoch: 04 December)

Event Time Altitude Azimuth Distance (km) Brightness Sun altitude
Rises 21:40:22 0° 283° (WNW) 4,934 12.2 -52.7°
Reaches altitude 10° 21:43:35 10° 286° (WNW) 3,937 11.5 -53.2°
Enters shadow 21:47:50 29° 292° (WNW) 2,695 10.4 -53.8°
